sat.trackr.live / text

‹ back to catalog

STARLINK-35975

NORAD 66525 · 2025-265K

PAYLOAD ACTIVE UNKNOWN

§ Identity

Operator
Country
US
Launch date
2025-11-19
Launch site
AFETR
Launch vehicle
Mass (kg)
RCS (m²)

Purposes: comms

External: N2YO · Heavens-Above · Gunter

§ Orbital elements

Epoch: 2026-05-25T04:33:25.972416Z

Period
94.27 min
Inclination
42.9983°
Eccentricity
0.0001378
Mean motion
15.27586530 rev/d
Perigee alt
482.1 km
Apogee alt
484.0 km
Semi-major
6,861.2 km
B*
4.5360e-4
RAAN
205.8611°
Arg perigee
278.4014°
Mean anomaly
81.6681°
Rev number
2,881

§ Raw data

STARLINK-359751 66525U 25265K   26145.18988394  .00012243  00000+0  45360-3 0  99942 66525  42.9983 205.8611 0001378 278.4014  81.6681 15.27586530 28810

JSON: /api/v1/satellites/66525 · /tle

For live sub-satellite position, see the globe view (requires WebGL).

§ Visibility from observer

Set your observer location to see the next 7 days of passes ≥ 10°. The values pass through the URL so the page stays shareable.

No JS? Fill the form by hand. The geolocation button needs JavaScript.